Location: Copper Breaks State Park
(34.1132°N, 99.7492°W)
Time: 09:15:32
(UTC-05:00)

SL-16 R/B - Visible Passes

Search period start: 05 September 2015 00:00
Search period end: 15 September 2015 00:00
Orbit: 985 x 1006 km, 99.2° (Epoch: 03 September)

Date Brightness Start Highest point End Pass type
(mag) Time Alt. Az. Time Alt. Az. Time Alt. Az.
05 Sep 3.9 04:08:31 10° SE 04:14:01 34° ENE 04:19:37 10° N visible
05 Sep 3.2 05:53:33 17° SSW 05:57:39 32° W 06:03:08 10° NW visible
06 Sep 2.9 04:39:56 17° SSE 04:44:42 62° ENE 04:50:53 10° N visible
06 Sep 3.9 06:25:01 11° SW 06:28:52 17° W 06:32:37 10° NW visible
07 Sep 5.0 03:29:06 10° E 03:32:27 16° ENE 03:36:07 10° NNE visible
07 Sep 2.4 05:11:24 23° S 05:15:30 74° WSW 05:21:47 10° NNW visible
08 Sep 4.3 03:57:53 10° ESE 04:02:59 28° ENE 04:08:15 10° N visible
08 Sep 2.9 05:42:53 22° SSW 05:46:28 40° W 05:52:16 10° NNW visible
09 Sep 3.3 04:29:16 19° SE 04:33:38 51° ENE 04:39:41 10° N visible
09 Sep 3.6 06:14:23 15° SW 06:17:36 21° W 06:22:07 10° NW visible
10 Sep 5.2 03:19:14 10° E 03:21:29 12° ENE 03:24:07 10° NE visible
10 Sep 2.4 05:00:47 27° SSE 05:04:24 90° WSW 05:10:42 10° NNW visible
10 Sep 4.2 06:47:47 10° W 06:48:58 10° W 06:49:33 10° W visible
11 Sep 4.5 03:47:21 10° ESE 03:51:58 23° ENE 03:56:48 10° NNE visible
11 Sep 2.7 05:32:18 29° SSW 05:35:18 50° W 05:41:20 10° NNW visible
12 Sep 3.6 04:18:42 20° SE 04:22:35 41° ENE 04:28:25 10° N visible
12 Sep 3.4 06:03:48 21° SW 06:06:22 27° W 06:11:28 10° NW visible
13 Sep 2.6 04:50:13 32° SSE 04:53:19 75° ENE 04:59:34 10° N visible
13 Sep 4.0 06:35:20 12° WSW 06:37:39 14° W 06:40:25 10° WNW visible
14 Sep 4.8 03:36:57 10° ESE 03:40:58 19° ENE 03:45:14 10° NNE visible
14 Sep 2.5 05:21:45 38° SSW 05:24:09 62° W 05:30:21 10° NNW visible
